DW8016 Weather Reports


time (UTC)temp
F
wind
direction
speed
knots
gust
knots
rain 1hr
in
rain 24hr
in
rain mn
in
humidity
%
barometer
mb
20260901141442 91 286 0.0 3.5 0.00 0.00 0.00 58 1016.4
20260901140503 92 286 0.0 0.0 0.00 0.00 0.00 57 1016.4
20260901135503 92 286 0.0 0.9 0.00 0.00 0.00 57 1016.4
20260901134435 91 286 0.0 0.0 0.00 0.00 0.00 61 1016.4
20260901133420 89 286 0.0 0.0 0.00 0.00 0.00 62 1016.5
20260901132429 88 292 0.0 0.0 0.00 0.00 0.00 65 1016.5
20260901130314 86 277 0.0 0.0 0.00 0.00 0.00 71 1016.7
20260901125247 85 277 0.0 0.0 0.00 0.00 0.00 72 1016.7
20260901123053 84 277 0.0 2.6 0.00 0.00 0.00 72 1016.9
20260901122044 84 284 0.0 0.0 0.00 0.00 0.00 74 1016.9
20260901121035 82 284 0.0 0.0 0.00 0.00 0.00 78 1016.8
20260901120013 80 284 0.0 0.0 0.00 0.00 0.00 82 1016.7
20260901113916 79 284 0.0 0.0 0.00 0.00 0.00 83 1016.5
20260901112855 79 284 0.0 0.0 0.00 0.00 0.00 84 1016.3
20260901111908 78 284 0.0 0.0 0.00 0.00 0.00 85 1016.3
20260901110908 78 285 0.0 0.0 0.00 0.00 0.00 85 1016.4
20260901105930 78 285 0.0 0.0 0.00 0.00 0.00 84 1016.4
20260901104929 78 285 0.0 3.5 0.00 0.00 0.00 84 1016.3
20260901103929 78 284 0.0 0.0 0.00 0.00 0.00 83 1016.2
20260901102949 78 284 0.0 0.0 0.00 0.00 0.00 83 1016.0
20260901102001 78 250 0.0 0.0 0.00 0.00 0.00 84 1016.1
20260901100959 78 286 0.0 4.3 0.00 0.00 0.00 85 1016.1
20260901100022 77 280 0.0 3.5 0.00 0.00 0.00 85 1016.0
20260901095008 77 281 0.0 1.7 0.00 0.00 0.00 86 1016.0
20260901094021 78 281 0.0 0.0 0.00 0.00 0.00 86 1015.9
20260901093047 78 281 0.0 0.0 0.00 0.00 0.00 86 1016.0
20260901092046 78 281 0.0 0.0 0.00 0.00 0.00 86 1016.2
20260901091016 77 282 0.0 3.5 0.00 0.00 0.00 87 1016.3
20260901090027 77 282 0.0 0.9 0.00 0.00 0.00 87 1016.2
20260901082812 78 302 0.0 0.0 0.00 0.00 0.00 87 1016.2
20260901081752 78 302 0.0 0.0 0.00 0.00 0.00 87 1016.2
20260901080816 78 191 0.0 2.6 0.00 0.01 0.00 87 1016.1
20260901075746 78 209 0.0 1.7 0.00 0.01 0.00 87 1016.2
20260901074725 78 252 0.0 3.5 0.00 0.01 0.00 88 1016.2
20260901073747 78 237 0.0 0.9 0.00 0.01 0.00 88 1016.3
20260901072745 78 237 0.0 0.9 0.00 0.01 0.00 88 1016.5
20260901071755 77 237 0.0 0.0 0.00 0.01 0.00 89 1016.5
20260901070814 77 237 0.0 0.0 0.00 0.01 0.00 89 1016.6
20260901065810 78 237 0.0 0.0 0.00 0.01 0.00 89 1016.6
20260901064828 77 237 0.0 0.0 0.00 0.01 0.00 89 1016.8
20260901063830 78 215 0.0 0.0 0.00 0.01 0.00 90 1016.8
20260901062828 78 215 0.0 0.0 0.00 0.01 0.00 90 1016.9
20260901061754 78 215 0.0 0.9 0.00 0.01 0.00 91 1016.8
20260901060720 78 214 0.0 0.0 0.00 0.01 0.00 91 1016.8
20260901055704 78 214 0.0 2.6 0.00 0.01 0.00 90 1016.9
20260901054632 78 214 0.0 0.0 0.00 0.01 0.00 90 1017.1
20260901053638 78 214 0.0 0.0 0.00 0.01 0.00 89 1017.1
20260901052622 78 214 0.0 0.0 0.00 0.01 0.00 89 1017.4
20260901051614 78 214 0.0 0.0 0.00 0.01 0.00 89 1017.3
20260901050600 78 214 0.0 0.0 0.00 0.01 0.00 89 1017.4
20260901045539 78 214 0.0 0.0 0.00 0.01 0.00 88 1017.5
20260901044527 78 214 0.0 0.0 0.00 0.01 0.00 88 1017.6
20260901043547 78 214 0.0 0.0 0.00 0.01 0.00 88 1017.6
20260901042542 78 214 0.0 0.0 0.00 0.01 0.00 89 1017.8
20260901041538 78 214 0.0 0.0 0.00 0.01 0.00 89 1017.8
20260901040512 77 214 0.0 0.0 0.00 0.01 0.00 90 1017.8
20260901035449 77 214 0.0 1.7 0.00 0.01 0.01 90 1017.8
20260901034502 77 214 0.0 0.0 0.00 0.01 0.01 91 1017.8
20260901033432 77 214 0.0 0.0 0.00 0.01 0.01 90 1017.7
20260901032425 77 214 0.0 0.0 0.00 0.01 0.01 89 1017.8
20260901030301 78 214 0.0 0.0 0.00 0.01 0.01 88 1017.9
20260901025249 78 214 0.0 0.0 0.00 0.01 0.01 87 1017.8
20260901024313 79 214 0.0 0.0 0.00 0.01 0.01 86 1017.9
20260901023330 79 214 0.0 0.0 0.00 0.01 0.01 86 1017.8
20260901022310 79 214 0.0 0.0 0.00 0.01 0.01 86 1017.8
20260901020202 80 214 0.0 0.0 0.00 0.01 0.01 85 1017.7
20260901015212 80 214 0.0 2.6 0.00 0.01 0.01 85 1017.8
20260901014140 80 182 0.0 2.6 0.00 0.01 0.01 85 1017.6
20260901013145 79 177 0.0 0.0 0.00 0.01 0.01 85 1017.7
20260901012152 79 177 0.0 0.0 0.00 0.01 0.01 85 1017.7
20260901010023 80 177 0.0 0.0 0.00 0.01 0.01 83 1017.5
20260901002856 80 177 0.0 2.6 0.00 0.13 0.01 82 1017.3
20260901001851 81 0 0.0 0.0 0.00 0.34 0.01 81 1017.1
20260901000822 82 0 0.0 0.0 0.00 0.63 0.01 79 1017.2
20260831235836 83 0 0.0 0.0 0.00 0.93 0.01 78 1017.3
20260831234806 83 0 0.0 0.0 0.00 1.12 0.01 78 1017.2
20260831233751 83 0 0.0 0.0 0.00 1.12 0.01 76 1017.1
20260831232737 84 0 0.0 0.0 0.00 1.12 0.01 77 1017.2
20260831231727 84 0 0.0 0.0 0.00 1.12 0.01 75 1017.2
20260831230740 84 0 0.0 0.0 0.00 1.12 0.01 75 1017.2
20260831224556 84 0 0.0 0.0 0.00 1.12 0.01 75 1017.5
20260831222430 84 0 0.0 0.0 0.00 1.12 0.01 75 1017.8
20260831221429 84 0 0.0 0.0 0.00 1.12 0.01 73 1018.0
20260831220354 84 0 0.0 0.0 0.00 1.12 0.01 73 1017.9
20260831214155 84 0 0.0 0.0 0.00 1.12 0.01 74 1017.9
20260831213137 84 0 0.0 0.0 0.00 1.12 0.01 76 1017.9
20260831212134 84 0 0.0 0.0 0.00 1.12 0.01 76 1017.9
20260831211135 84 0 0.0 0.0 0.00 1.12 0.01 74 1017.8
20260831210125 84 0 0.0 0.0 0.00 1.12 0.01 74 1017.8
20260831204001 85 0 0.0 0.0 0.00 1.12 0.01 72 1017.8
20260831202936 85 0 0.0 0.0 0.00 1.12 0.01 72 1017.8
20260831201923 85 0 0.0 0.0 0.00 1.12 0.01 72 1017.9
20260831200936 85 0 0.0 0.0 0.00 1.12 0.01 71 1017.9
20260831195952 85 0 0.0 0.0 0.00 1.12 0.01 73 1017.9
20260831194920 84 0 0.0 0.0 0.00 1.12 0.01 69 1017.8
20260831191646 85 0 0.0 0.0 0.00 1.12 0.01 69 1018.3
20260831190656 85 0 0.0 0.9 0.00 1.12 0.01 70 1018.4
20260831184515 86 0 0.0 0.0 0.00 1.12 0.01 68 1018.4
20260831183449 86 0 0.0 0.0 0.00 1.12 0.01 70 1018.5
20260831180224 88 98 0.0 0.9 0.00 1.12 0.01 66 1018.4
20260831175220 88 94 0.0 0.0 0.00 1.12 0.01 65 1018.4
20260831174153 88 95 0.0 0.0 0.00 1.12 0.01 65 1018.6
20260831173210 88 72 0.0 3.5 0.00 1.12 0.01 66 1018.6
20260831172217 88 88 0.0 0.0 0.00 1.12 0.01 66 1018.8
20260831171217 87 94 0.0 0.0 0.00 1.12 0.01 66 1018.7
20260831170212 86 112 0.9 0.0 0.00 1.12 0.01 67 1018.7
20260831165209 86 77 0.0 3.5 0.00 1.12 0.01 70 1019.1
20260831164157 86 53 0.0 0.0 0.00 1.12 0.01 71 1019.0
20260831163137 85 5 0.0 0.0 0.00 1.12 0.01 71 1019.2
20260831162145 85 5 0.0 0.9 0.00 1.12 0.01 72 1019.4
20260831161126 84 5 0.0 0.0 0.00 1.12 0.01 76 1019.6
20260831160123 84 61 0.0 2.6 0.00 1.12 0.01 76 1019.5
20260831155122 85 115 0.0 2.6 0.00 1.12 0.01 73 1019.2
20260831152939 84 105 0.9 5.2 0.00 1.12 0.01 75 1019.1
20260831145718 81 13 0.0 0.0 0.00 1.12 0.01 83 1019.4
20260831144740 81 83 0.0 0.0 0.00 1.12 0.01 82 1019.4
20260831143751 81 103 0.0 0.0 0.00 1.12 0.01 82 1019.2
20260831142751 82 114 0.0 4.3 0.00 1.12 0.01 81 1019.1